User: anonymous   Login
Location: Buckeye Ditch
(40.9104°N, 122.9517°W)
Time: 05:52:43
(UTC+00:00)
Language:

Cosmos 1766 - Orbit

View from above orbital plane
View from above orbital plane
View from above satellite
View from above satellite

Ground track
Ground track

The orbit data is extracted from the following two-line orbital elements,

1 16881U 86055A   24173.68613011  .00008090  00000-0  33293-3 0  9991
2 16881  82.5003  27.3903 0010508 261.4566  98.5480 15.23934349 47482
Epoch (UTC): 21 June 2024 16:28:01
Eccentricity: 0.0010508
inclination: 82.5003°
perigee height: 487 km
apogee height: 501 km
right ascension of ascending node: 27.3903°
argument of perigee: 261.4566°
revolutions per day: 15.23934349
mean anomaly at epoch: 98.5480°
orbit number at epoch: 4748

The dashed part of the orbit path shows where the satellite is in the earth's shadow,  

DLR